This demonstration page uses our WeatherBlox Daily Observations layout. Learn more.

Left ArrowRight Arrow

Hourly Observations for May 30, 2015

Temp ( °F °C ) Dew Point ( °F °C ) Humidity (%) Winds ( mph kmh ) Pressure ( in mb ) Visibility ( mi km ) Precip ( " mm )
12:52 am 00:52 Cloudy 54 12.2 50 10 87 87 N 20 31 30.06 1018 10 16 0.00 0.00
1:52 am 01:52 Cloudy 53 11.7 49 9.4 86 86 NNW 16 26 30.06 1018 10 16 0.00 0.00
2:52 am 02:52 Cloudy 51 10.6 48 8.9 89 89 NNW 20 31 30.08 1019 10 16 0.00 0.00
3:52 am 03:52 Cloudy 51 10.6 47 8.3 86 86 NNW 15 24 30.08 1019 10 16 0.00 0.00
4:00 am 04:00 Cloudy 52 11 46 8 82 82 N 16 26 30.09 1019 10 16 0.00 0.00
4:52 am 04:52 Cloudy 52 11.1 47 8.3 83 83 NNW 15 24 30.10 1019 10 16 0.00 0.00
5:14 am 05:14 Cloudy 51 10.6 48 8.9 89 89 NNW 17 28 30.12 1020 8 13 0.00 0.00
5:52 am 05:52 Cloudy with Light Rain 50 10 49 9.4 96 96 NNW 14 22 30.10 1019 4 6 0.00 0.03
6:09 am 06:09 Cloudy with Light Rain 51 10.6 49 9.4 92 92 N 15 24 30.12 1020 5 8 0.00 0.03
6:44 am 06:44 Cloudy 52 11 48 9 88 88 N 15 24 30.12 1020 10 16 0.00 0.00
6:52 am 06:52 Cloudy 52 11.1 48 8.9 86 86 N 17 28 30.10 1019 10 16 0.00 0.03
7:08 am 07:08 Cloudy 52 11 48 9 88 88 NNW 18 30 30.12 1020 10 16 0.00 0.00
7:52 am 07:52 Cloudy 53 11.7 48 8.9 83 83 NNW 15 24 30.14 1021 10 16 0.00 0.00
8:52 am 08:52 Cloudy 53 11.7 48 8.9 83 83 NNW 16 26 30.16 1021 10 16 0.00 0.00
9:52 am 09:52 Cloudy 54 12.2 46 7.8 75 75 N 15 24 30.17 1022 10 16 0.00 0.00
10:52 am 10:52 Cloudy 55 12.8 47 8.3 74 74 N 18 30 30.18 1022 10 16 0.00 0.00
11:52 am 11:52 Mostly Cloudy 58 14.4 47 8.3 67 67 N 18 30 30.19 1022 10 16 0.00 0.00
12:37 pm 12:37 Cloudy 61 16.1 47 8.3 60 60 N 20 31 30.18 1022 10 16 0.00 0.00
12:52 pm 12:52 Mostly Cloudy 62 16.7 47 8.3 58 58 N 17 28 30.19 1022 10 16 0.00 0.00
1:52 pm 13:52 Mostly Cloudy 64 17.8 46 7.8 52 52 NNE 16 26 30.17 1022 10 16 0.00 0.00
2:52 pm 14:52 Mostly Cloudy 66 18.9 45 7.2 47 47 N 16 26 30.17 1022 10 16 0.00 0.00
3:52 pm 15:52 Partly Cloudy 69 20.6 45 7.2 42 42 N 13 20 30.16 1021 10 16 0.00 0.00
4:52 pm 16:52 Mostly Sunny 70 21.1 41 5 35 35 NE 13 20 30.15 1021 10 16 0.00 0.00
5:52 pm 17:52 Mostly Sunny 70 21.1 42 5.6 37 37 NE 13 20 30.14 1021 10 16 0.00 0.00
6:52 pm 18:52 Mostly Sunny 69 20.6 42 5.6 38 38 NNE 17 28 30.13 1020 10 16 0.00 0.00
7:52 pm 19:52 Mostly Sunny 66 18.9 44 6.7 45 45 ENE 8 13 30.15 1021 10 16 0.00 0.00
8:52 pm 20:52 Mostly Clear 62 16.7 43 6.1 50 50 NE 10 17 30.16 1021 10 16 0.00 0.00
9:52 pm 21:52 Clear 60 15.6 45 7.2 58 58 ENE 9 15 30.18 1022 10 16 0.00 0.00
10:52 pm 22:52 Clear 59 15 46 7.8 62 62 ENE 9 15 30.19 1022 10 16 0.00 0.00
11:52 pm 23:52 Clear 57 13.9 48 8.9 72 72 ENE 9 15 30.20 1023 10 16 0.00 0.00

Powered by AerisWeather